CW5478 Weather Reports


Display with metric or nautical units.
time (UTC)temp
F
wind
direction
speed
MPH
gust
MPH
rain 1hr
in
rain 24hr
in
rain mn
in
humidity
%
barometer
mb
20260505021302 49 180 5.0 6.0 0.00 0.00 0.00 57 1018.2
20260505020802 49 90 3.0 6.0 0.00 0.00 0.00 57 1018.2
20260505020303 49 90 6.0 8.0 0.00 0.00 0.00 57 1018.2
20260505015803 50 112 7.0 9.0 0.00 0.00 0.00 55 1018.2
20260505015303 50 270 5.0 6.0 0.00 0.00 0.00 54 1018.0
20260505014303 50 270 3.0 6.0 0.00 0.00 0.00 53 1017.9
20260505013303 51 0 5.0 9.0 0.00 0.00 0.00 51 1017.9
20260505012802 51 315 7.0 12.0 0.00 0.00 0.00 51 1017.9
20260505011303 54 154 5.0 7.0 0.00 0.00 0.00 40 1017.9
20260505010803 54 229 6.0 13.0 0.00 0.00 0.00 40 1017.9
20260505010303 54 251 3.0 7.0 0.00 0.00 0.00 40 1017.6
20260505005304 55 225 3.0 7.0 0.00 0.00 0.00 39 1017.6
20260505004303 55 125 8.0 15.0 0.00 0.00 0.00 40 1017.6
20260505003803 55 225 9.0 16.0 0.00 0.00 0.00 40 1017.6
20260505003303 55 218 6.0 12.0 0.00 0.00 0.00 40 1017.9
20260505002803 55 131 6.0 12.0 0.00 0.00 0.00 40 1017.9
20260505002304 55 226 7.0 13.0 0.00 0.00 0.00 40 1017.9
20260505001803 55 225 13.0 21.0 0.00 0.00 0.00 40 1017.9
20260505001302 56 252 13.0 21.0 0.00 0.00 0.00 39 1017.9
20260505000803 57 286 4.0 12.0 0.00 0.00 0.00 37 1017.9
20260505000303 57 0 3.0 5.0 0.00 0.00 0.00 37 1017.9
20260504235802 57 225 6.0 8.0 0.00 0.00 0.00 37 1017.9
20260504235304 57 45 1.0 3.0 0.00 0.00 0.00 37 1017.9
20260504234803 56 120 1.0 3.0 0.00 0.00 0.00 37 1017.9
20260504234303 56 225 1.0 6.0 0.00 0.00 0.00 37 1017.9
20260504233303 56 146 2.0 6.0 0.00 0.00 0.00 37 1017.9
20260504231802 55 150 2.0 3.0 0.00 0.00 0.00 38 1017.9
20260504231303 55 150 4.0 7.0 0.00 0.00 0.00 38 1017.9
20260504230803 56 90 6.0 13.0 0.00 0.00 0.00 39 1017.9
20260504230303 56 45 8.0 13.0 0.00 0.00 0.00 38 1017.9
20260504225803 56 90 7.0 12.0 0.00 0.00 0.00 38 1017.6
20260504225304 56 45 6.0 12.0 0.00 0.00 0.00 38 1017.9
20260504224304 56 30 3.0 8.0 0.00 0.00 0.00 39 1017.6
20260504223803 56 45 5.0 9.0 0.00 0.00 0.00 38 1017.9
20260504223303 56 90 3.0 12.0 0.00 0.00 0.00 38 1017.9
20260504222802 56 45 6.0 13.0 0.00 0.00 0.00 38 1017.9
20260504222304 56 87 8.0 15.0 0.00 0.00 0.00 38 1017.9
20260504221802 56 76 12.0 16.0 0.00 0.00 0.00 39 1017.9
20260504220803 56 90 6.0 9.0 0.00 0.00 0.00 38 1017.9
20260504220302 56 291 3.0 8.0 0.00 0.00 0.00 39 1018.2
20260504215802 56 45 4.0 10.0 0.00 0.00 0.00 39 1018.2
20260504215304 56 82 9.0 12.0 0.00 0.00 0.00 38 1018.2
20260504214303 55 110 6.0 20.0 0.00 0.00 0.00 38 1018.6
20260504213803 55 157 3.0 12.0 0.00 0.00 0.00 39 1018.6
20260504213302 55 93 1.0 8.0 0.00 0.00 0.00 40 1018.6
20260504212304 56 45 10.0 15.0 0.00 0.00 0.00 39 1018.6
20260504211803 56 45 7.0 9.0 0.00 0.00 0.00 39 1018.9
20260504211302 56 11 6.0 9.0 0.00 0.00 0.00 39 1018.9
20260504210802 56 225 9.0 12.0 0.00 0.00 0.00 39 1018.6
20260504210303 56 198 6.0 10.0 0.00 0.00 0.00 40 1018.9
20260504205304 56 345 6.0 14.0 0.00 0.00 0.00 40 1018.9
20260504204303 55 0 7.0 14.0 0.00 0.00 0.00 42 1019.3
20260504203803 55 314 10.0 16.0 0.00 0.00 0.00 42 1019.3
20260504203303 55 17 12.0 21.0 0.00 0.00 0.00 42 1019.6
20260504202803 55 305 13.0 17.0 0.00 0.00 0.00 41 1019.6
20260504202304 55 276 12.0 22.0 0.00 0.00 0.00 41 1019.3
20260504201803 54 277 12.0 24.0 0.00 0.00 0.00 41 1019.6
20260504201303 54 306 9.0 17.0 0.00 0.00 0.00 42 1019.6
20260504200803 53 260 12.0 22.0 0.00 0.00 0.00 42 1019.6
20260504195803 54 284 12.0 17.0 0.00 0.00 0.00 42 1019.6
20260504194803 54 242 14.0 25.0 0.00 0.00 0.00 43 1019.6
20260504194303 54 250 11.0 23.0 0.00 0.00 0.00 43 1019.6
20260504193803 54 265 14.0 22.0 0.00 0.00 0.00 43 1019.3
20260504193303 54 253 18.0 28.0 0.00 0.00 0.00 42 1019.6
20260504192304 54 265 15.0 22.0 0.00 0.00 0.00 44 1019.6
20260504191803 53 224 14.0 31.0 0.00 0.00 0.00 46 1019.6
20260504191302 52 241 20.0 26.0 0.00 0.00 0.00 49 1019.6
20260504190803 52 236 18.0 28.0 0.00 0.00 0.00 50 1019.6
20260504190303 53 240 14.0 23.0 0.00 0.00 0.00 48 1019.6
20260504185803 54 230 20.0 26.0 0.00 0.00 0.00 44 1019.6
20260504185304 54 264 14.0 26.0 0.00 0.00 0.00 40 1019.6
20260504184803 55 247 17.0 26.0 0.00 0.00 0.00 38 1019.9
20260504184303 56 276 13.0 29.0 0.00 0.00 0.00 37 1019.6
20260504183803 56 242 9.0 15.0 0.00 0.00 0.00 38 1019.9
20260504183302 55 199 3.0 9.0 0.00 0.00 0.00 38 1019.9
20260504182803 55 250 9.0 23.0 0.00 0.00 0.00 38 1019.9
20260504181803 56 255 14.0 22.0 0.00 0.00 0.00 38 1020.3
20260504181303 55 263 6.0 17.0 0.00 0.00 0.00 38 1020.3
20260504180803 55 260 6.0 16.0 0.00 0.00 0.00 38 1020.3
20260504180303 55 245 5.0 14.0 0.00 0.00 0.00 40 1020.3
20260504175803 54 287 8.0 17.0 0.00 0.00 0.00 40 1020.3
20260504175304 54 314 16.0 29.0 0.00 0.00 0.00 39 1020.3
20260504174802 54 311 14.0 24.0 0.00 0.00 0.00 39 1020.3
20260504174303 53 282 9.0 22.0 0.00 0.00 0.00 39 1020.3
20260504173802 53 281 12.0 22.0 0.00 0.00 0.00 38 1020.3
20260504172803 54 263 16.0 24.0 0.00 0.00 0.00 39 1020.3
20260504172304 54 253 12.0 17.0 0.00 0.00 0.00 39 1020.3
20260504171802 54 241 13.0 22.0 0.00 0.00 0.00 40 1020.3
20260504171303 54 270 13.0 22.0 0.00 0.00 0.00 40 1020.3
20260504170803 54 242 16.0 22.0 0.00 0.00 0.00 39 1020.3
20260504170303 53 269 14.0 26.0 0.00 0.00 0.00 39 1020.3
20260504150803 50 22 3.0 12.0 0.00 0.00 0.00 48 1021.6
20260504150303 49 1 9.0 14.0 0.00 0.00 0.00 51 1021.6
20260504141303 44 283 10.0 26.0 0.00 0.00 0.00 61 1021.7
20260504130804 43 282 9.0 20.0 0.00 0.00 0.00 62 1020.6
20260504130304 42 245 4.0 9.0 0.00 0.00 0.00 63 1021.0
20260504110303 44 97 5.0 15.0 0.00 0.00 0.00 57 1020.6
20260504100303 40 154 7.0 12.0 0.00 0.00 0.00 69 1020.6
20260504081803 45 270 8.0 10.0 0.00 0.00 0.00 45 1021.3
20260504080803 45 247 7.0 8.0 0.00 0.00 0.00 43 1021.3
20260504080303 45 267 6.0 8.0 0.00 0.00 0.00 43 1021.3
20260504070303 45 225 5.0 7.0 0.00 0.00 0.00 43 1022.0
20260504050303 49 270 6.0 7.0 0.00 0.00 0.00 38 1022.3
20260504045803 50 273 5.0 6.0 0.00 0.00 0.00 36 1022.3
20260504045304 50 270 1.0 3.0 0.00 0.00 0.00 36 1022.3
20260504044803 49 270 5.0 6.0 0.00 0.00 0.00 38 1022.3
20260504044303 50 270 5.0 6.0 0.00 0.00 0.00 38 1022.3
20260504043803 50 225 6.0 13.0 0.00 0.00 0.00 37 1022.3
20260504043303 49 264 7.0 12.0 0.00 0.00 0.00 39 1022.3
20260504042803 49 270 9.0 12.0 0.00 0.00 0.00 40 1022.3
20260504042304 49 228 8.0 10.0 0.00 0.00 0.00 40 1022.3
20260504041803 49 225 10.0 14.0 0.00 0.00 0.00 40 1022.6
20260504041303 49 225 10.0 13.0 0.00 0.00 0.00 40 1022.6
20260504040803 49 230 10.0 12.0 0.00 0.00 0.00 41 1022.4
20260504040304 48 258 9.0 13.0 0.00 0.00 0.00 41 1022.7
20260504035804 49 256 10.0 12.0 0.00 0.00 0.00 40 1022.6
20260504035305 50 270 9.0 12.0 0.00 0.00 0.00 38 1022.4
20260504034304 51 270 9.0 12.0 0.00 0.00 0.00 36 1022.3
20260504033803 50 268 10.0 14.0 0.00 0.00 0.00 38 1022.6
20260504032804 50 270 10.0 14.0 0.00 0.00 0.00 38 1022.6
20260504032304 49 242 10.0 13.0 0.00 0.00 0.00 39 1022.6
20260504031804 49 239 9.0 12.0 0.00 0.00 0.00 39 1022.4
20260504030803 51 258 7.0 8.0 0.00 0.00 0.00 36 1022.4
20260504030304 52 247 6.0 9.0 0.00 0.00 0.00 33 1022.3
20260504025804 52 252 6.0 12.0 0.00 0.00 0.00 34 1022.3
20260504025304 52 302 9.0 13.0 0.00 0.00 0.00 36 1022.3
20260504024804 52 270 7.0 12.0 0.00 0.00 0.00 35 1022.3
20260504024303 52 268 9.0 13.0 0.00 0.00 0.00 35 1022.3
20260504023803 51 270 10.0 16.0 0.00 0.00 0.00 36 1022.3
20260504023304 51 251 7.0 15.0 0.00 0.00 0.00 36 1022.3
20260504022304 52 270 6.0 10.0 0.00 0.00 0.00 35 1022.3